Погода в Битках

Россия / Новосибирская область     54°12′08″N   82°16′09″E
темп.,
°C
ветер,
м/с
пор.,
м/с
влажн.,
%
обл.,
%
осадки,
мм/ч
давл.,
гПа
погр.,
м
22 января, пт
пт2201:00−14ююз2294100 0.0 101368
04:00−13юз2396100 0.7 1010153
07:00−13з4795100 1.8 1009306
10:00−16з4995100 0.1 1012305
13:00−18з4894100 0.2 1014325
16:00−20з4794100 0.0 1017311
19:00−23з3696100 0.0 1020123
22:00−25зюз3496100 0.0 102386
23 января, сб
сб2301:00−26юз3796100 0.0 1025137
04:00−26юз489679 0.0 1027212
07:00−25ююз599790 0.1 1028305
10:00−24ююз5995100 0.2 1030314
13:00−21ююз5994100 0.3 1031438
16:00−19ююз4892100 0.1 1030519
19:00−19ююз3896100 0.1 1030360
22:00−18ююз3896100 0.2 1031310
24 января, вс
вс2401:00−18ююз3797100 0.4 1030222
04:00−19зюз2598100 0.2 1030162
07:00−21з2499100 0.4 1031105
10:00−24зсз3598100 0.1 1034184
13:00−24зсз3596100 0.2 1035344
16:00−28зсз469595 0.0 1038303
19:00−35з359764 0.0 104179
22:00−38з339841 0.0 104364
25 января, пн
пн2501:00−39з239838 0.0 104429
04:00−41з229816 0.0 104618
07:00−42з229819 0.0 104718
10:00−42зюз129818 0.0 104818
13:00−36юз129215 0.0 1048174
16:00−33юз019156 0.0 1047141
19:00−39юв119954 0.0 104819
22:00−38ююв119678 0.0 104818
26 января, вт
вт2601:00−37юв119689 0.0 104719
04:00−37в1196100 0.0 104719
07:00−38всв129699 0.0 104619
10:00−38всв229429 0.0 104718
13:00−33св229115 0.0 1047133
16:00−33ссв23960 0.0 1047148
19:00−38св23940 0.0 104822
22:00−38св23920 0.0 104919